This is the latest recevied weather packets stored in our database for station/object WP4PW. If no packets are shown the sender has not sent any weather packets the latest 10 day(s).
| Time | Temp. | Humidity | Pressure | Rain* | Wind** | Luminosity | Snow |
|---|---|---|---|---|---|---|---|
| 1778106374 | 27.78° C | 87% | 1020.5 hPa | 0 mm | - | 16 W/m² | - |
| 1778106070 | 27.78° C | 87% | 1020.6 hPa | 0 mm | - | 18 W/m² | - |
| 1778105768 | 27.78° C | 87% | 1020.3 hPa | 0 mm | - | 21 W/m² | - |
| 1778105466 | 27.78° C | 87% | 1020.3 hPa | 0 mm | - | 24 W/m² | - |
| 1778105162 | 27.78° C | 86% | 1020.3 hPa | 0 mm | - | 27 W/m² | - |
| 1778104857 | 28.33° C | 86% | 1020.3 hPa | 0 mm | - | 40 W/m² | - |
| 1778104554 | 28.33° C | 85% | 1020.4 hPa | 0 mm | - | 67 W/m² | - |
| 1778104249 | 28.89° C | 84% | 1020.4 hPa | 0 mm | - | 83 W/m² | - |
| 1778103947 | 28.33° C | 84% | 1020.2 hPa | 0 mm | - | 95 W/m² | - |
| 1778103644 | 28.33° C | 84% | 1020.4 hPa | 0 mm | - | 108 W/m² | - |
| 1778103342 | 28.33° C | 84% | 1020.3 hPa | 0 mm | - | 55 W/m² | - |
| 1778103039 | 28.89° C | 84% | 1020.2 hPa | 0 mm | - | 45 W/m² | - |
| 1778102736 | 28.89° C | 84% | 1020.3 hPa | 0 mm | - | 149 W/m² | - |
| 1778102430 | 28.89° C | 83% | 1020.3 hPa | 0 mm | - | 92 W/m² | - |
| 1778102127 | 28.89° C | 83% | 1020.2 hPa | 0 mm | - | 179 W/m² | - |
| 1778101824 | 29.44° C | 83% | 1020.1 hPa | 0 mm | - | 200 W/m² | - |
| 1778101521 | 28.89° C | 84% | 1019.9 hPa | 0 mm | - | 212 W/m² | - |
| 1778101217 | 28.89° C | 83% | 1020.2 hPa | 0 mm | - | 227 W/m² | - |
| 1778100914 | 29.44° C | 83% | 1020 hPa | 0 mm | - | 67 W/m² | - |
| 1778100609 | 28.89° C | 83% | 1020 hPa | 0 mm | - | 258 W/m² | - |
| 1778100308 | 29.44° C | 80% | 1020 hPa | 0 mm | - | 129 W/m² | - |
| 1778100004 | 29.44° C | 82% | 1020 hPa | 0 mm | - | 271 W/m² | - |
| 1778099702 | 29.44° C | 82% | 1020.2 hPa | 0 mm | - | 313 W/m² | - |
| 1778099399 | 29.44° C | 82% | 1020 hPa | 0 mm | - | 297 W/m² | - |
| 1778099096 | 29.44° C | 83% | 1020 hPa | 0 mm | - | 316 W/m² | - |
* Rain latest hour (hover to see other rain measurements)
** Current wind speed in m/s (hover to see current wind gust speed)